WB8SKP-WX Weather Reports


Display with metric or nautical units.
time (UTC)temp
F
wind
direction
speed
MPH
gust
MPH
rain 1hr
in
rain 24hr
in
rain mn
in
humidity
%
barometer
mb
20260510203235 72 344 5.0 9.0 0.00 0.00 0.00 69 997.6
20260510201235 73 37 3.0 9.0 0.00 0.00 0.00 71 997.5
20260510195235 76 337 5.0 9.0 0.00 0.00 0.00 61 997.5
20260510193205 76 124 3.0 9.0 0.00 0.00 0.00 62 997.5
20260510191204 74 288 2.0 9.0 0.00 0.00 0.00 64 997.5
20260510185204 74 275 1.0 9.0 0.00 0.00 0.00 65 997.5
20260510183134 76 38 0.0 9.0 0.00 0.00 0.00 58 997.4
20260510181135 74 331 2.0 9.0 0.00 0.00 0.00 61 997.5
20260510175105 73 79 0.0 9.0 0.00 0.00 0.00 67 997.5
20260510173104 74 54 1.0 8.0 0.00 0.00 0.00 63 997.7
20260510171104 72 101 0.0 8.0 0.00 0.00 0.00 66 997.9
20260510165034 72 7 1.0 8.0 0.00 0.00 0.00 65 998.1
20260510163035 72 6 2.0 8.0 0.00 0.00 0.00 63 997.8
20260510161034 71 347 3.0 8.0 0.00 0.00 0.00 68 997.7
20260510155034 70 26 1.0 8.0 0.00 0.00 0.00 74 997.6
20260510153004 69 344 3.0 8.0 0.00 0.00 0.00 74 997.5
20260510151004 72 327 3.0 8.0 0.00 0.00 0.00 72 997.0
20260510145004 72 80 0.0 8.0 0.00 0.00 0.00 71 996.6
20260510142934 72 59 0.0 8.0 0.00 0.00 0.00 71 996.4
20260510140934 69 159 0.0 8.0 0.00 0.00 0.00 74 996.5
20260510134934 67 188 1.0 8.0 0.00 0.00 0.00 79 996.6
20260510132934 65 127 0.0 8.0 0.00 0.00 0.00 77 996.8
20260510130934 64 139 0.0 8.0 0.00 0.00 0.00 80 996.6
20260510124904 61 98 0.0 8.0 0.00 0.00 0.00 82 996.3
20260510122904 59 136 0.0 8.0 0.00 0.00 0.00 88 996.4
20260510120904 57 137 0.0 8.0 0.00 0.00 0.00 90 996.1
20260510114834 54 210 0.0 8.0 0.00 0.00 0.00 96 995.7
20260510112834 53 191 0.0 8.0 0.00 0.00 0.00 97 995.5
20260510110804 53 196 0.0 8.0 0.00 0.00 0.00 98 995.4
20260510104804 53 163 0.0 8.0 0.00 0.00 0.00 99 995.3
20260510102734 54 178 0.0 8.0 0.00 0.00 0.00 96 995.3
20260510100734 55 163 2.0 8.0 0.00 0.00 0.00 92 995.2
20260510094734 55 77 0.0 8.0 0.00 0.00 0.00 90 995.2
20260510092704 53 202 0.0 3.0 0.00 0.00 0.00 98 994.6
20260510090704 53 352 0.0 3.0 0.00 0.00 0.00 97 994.5
20260510084704 54 175 0.0 3.0 0.00 0.00 0.00 98 994.2
20260510082704 54 175 0.0 3.0 0.00 0.00 0.00 97 994.0
20260510080704 54 122 0.0 3.0 0.00 0.00 0.00 97 993.9
20260510074753 55 105 0.0 3.0 0.00 0.00 0.00 94 993.9
20260510074704 55 105 0.0 3.0 0.00 0.00 0.00 94 993.9
20260510072704 55 157 0.0 3.0 0.00 0.00 0.00 96 993.8
20260510070703 56 157 0.0 3.0 0.00 0.00 0.00 94 993.8
20260510064633 56 176 0.0 3.0 0.00 0.00 0.00 91 993.6
20260510062603 57 150 0.0 3.0 0.00 0.00 0.00 88 993.6
20260510060603 58 131 0.0 3.0 0.00 0.00 0.00 86 993.7
20260510054603 59 107 0.0 3.0 0.00 0.00 0.00 83 993.5
20260510052533 58 131 0.0 0.0 0.00 0.00 0.00 85 993.5
20260510050659 59 131 0.0 0.0 0.00 0.00 0.00 87 993.4
20260510050533 59 131 0.0 0.0 0.00 0.00 0.00 87 993.4
20260510044533 60 131 0.0 8.0 0.00 0.00 0.00 82 993.4
20260510042503 60 115 0.0 8.0 0.00 0.00 0.00 84 993.3
20260510040503 60 115 0.0 8.0 0.00 0.00 0.00 84 993.3
20260510034537 61 100 0.0 8.0 0.00 0.00 0.00 86 993.4
20260510034503 61 100 0.0 8.0 0.00 0.00 0.00 86 993.4
20260510032433 62 100 0.0 8.0 0.00 0.00 0.00 84 993.4
20260510030433 62 144 0.0 8.0 0.00 0.00 0.00 83 993.4
20260510024403 63 97 0.0 8.0 0.00 0.00 0.00 82 993.3
20260510022403 64 113 0.0 8.0 0.00 0.00 0.00 79 993.1
20260510020403 64 181 0.0 8.0 0.00 0.00 0.00 81 992.9
20260510014403 65 197 0.0 8.0 0.00 0.00 0.00 79 992.6
20260510012403 65 180 0.0 8.0 0.00 0.00 0.00 79 992.4
20260510010421 67 20 0.0 8.0 0.00 0.00 0.00 74 992.1
20260510010333 67 20 0.0 8.0 0.00 0.00 0.00 74 992.1
20260510004333 70 20 0.0 8.0 0.00 0.00 0.00 69 991.9
20260510002333 74 208 0.0 8.0 0.00 0.00 0.00 62 991.6
20260510000304 77 130 0.0 8.0 0.00 0.00 0.00 56 991.4
20260509234303 78 76 0.0 8.0 0.00 0.00 0.00 52 991.2
20260509232306 79 128 1.0 8.0 0.00 0.00 0.00 48 991.3
20260509230233 80 210 1.0 8.0 0.00 0.00 0.00 44 991.3
20260509224233 79 127 0.0 8.0 0.00 0.00 0.00 47 991.3
20260509222233 79 89 1.0 8.0 0.00 0.00 0.00 48 991.3
20260509220233 79 292 0.0 8.0 0.00 0.00 0.00 49 991.1
20260509214233 79 71 0.0 8.0 0.00 0.00 0.00 48 991.0
20260509212233 78 61 0.0 8.0 0.00 0.00 0.00 48 990.9
20260509210203 79 348 1.0 8.0 0.00 0.00 0.00 44 990.9